Regional Weather Roundup
Issued by NWS

Home | Current Version | Previous Version | Text Only | Print | Product List | Glossary On
Versions: 1 2 3 4 5 6 7 8 9 10 11 12 13 14 15 16 17 18 19 20 21 22 23 24 25 26 27 28 29 30 31 32 33 34 35 36 37 38 39 40 41 42 43 44 45 46 47 48 49 50
000
ASUS44 KEWX 260502
RWRTX
SOUTH TEXAS REGIONAL WEATHER ROUNDUP
NATIONAL WEATHER SERVICE AUSTIN/SAN ANTONIO TX
1200 AM CDT SAT JUL 26 2014

NOTE: "FAIR" INDICATED FEW OR NO CLOUDS BELOW 12,000 FEET WITH NO
SIGNIFICANT WEATHER AND/OR OBSTRUCTIONS TO VISIBILITY.

* - THESE STATIONS ARE NOT NWS OR FAA STATIONS...AND ARE NOT SUBJECT
    TO NWS AND FAA QUALITY CONTROL.

TXZ171-172-183>190-260600-
TEXAS HILL COUNTRY AND EDWARDS PLATEAU

CITY           SKY/WX    TMP DP  RH WIND       PRES   REMARKS
JUNCTION       CLEAR     83  65  54 S7        30.02R
*LLANO         CLEAR     81  64  57 SE3       30.02S
BURNET         CLEAR     83  68  60 S8        30.03R
*HORSESHOE BAY CLEAR     83  64  53 S6        30.01R
*KERRVILLE     CLEAR     79  70  73 S10       30.05R
*FREDERICKSBRG CLEAR     80  66  64 S5        30.04S
*ROCKSPRINGS   CLEAR     81  64  57 SE9       30.07S
*BOERNE STAGE  CLEAR     79  66  65 S7        30.05R
*CASTROVILLE   CLEAR     82  67  61 SE6       30.02S
HONDO          CLEAR     80  68  66 SE7       30.02R
*UVALDE        CLEAR     82  71  70 SE8       29.99S
DEL RIO        CLEAR     87  65  47 SE13      29.95R
LAUGHLIN AFB   NOT AVBL
CARRIZO SPRGS  CLEAR     81  72  74 SE12G17   29.95S
$$

TXZ173-191>194-202-209-217>225-228-260600-
CENTRAL AND SOUTH CENTRAL TEXAS

CITY           SKY/WX    TMP DP  RH WIND       PRES   REMARKS
GEORGETOWN     CLEAR     82  72  69 S9        30.00S
AUSTIN/BERGSTM PTCLDY    83  70  64 S13       29.99R
AUSTIN/MABRY   CLEAR     84  70  62 VRB7G18   30.01R
*AUSTIN/EXEC   MOCLDY    81  72  74 S5        30.01R
*LAGO VISTA    CLEAR     83  68  60 SE8G16    30.03R
SAN MARCOS     CLEAR     82  70  65 S12       30.02R
NEW BRAUNFELS  CLEAR     80  71  74 S7        30.00R
RANDOLPH AFB   CLEAR     82  68  62 SE8       30.01R
PT SAN ANTONIO CLEAR     81  69  68 SE10      30.00R
SAN ANTONIO    PTCLDY    83  68  60 S14       30.01R
STINSON FIELD  CLEAR     81  69  67 SE9       29.99R
*PLEASANTON    CLEAR     82  70  67 SE7       30.00R
*LA GRANGE     CLEAR     82  76  82 S5        30.00R
*GIDDINGS      CLEAR     81  72  73 S7        30.05R
*GONZALES      CLEAR     82  74  76 S8        30.00R
$$

TXZ163>164-176>182-195>201-210>213-226-227-235-260600-
SOUTHEAST TEXAS

CITY           SKY/WX    TMP DP  RH WIND       PRES   REMARKS
COLLEGE STN    CLEAR     82  72  71 S10       30.00R
*BRYAN         CLEAR     81  73  75 S8        30.00R
*CALDWELL      CLEAR     81  72  74 S8        30.03R
*CROCKETT      CLEAR     82  77  83 S3        30.02R HX  91
*BRENHAM       CLEAR     82  72  71 S8        30.01R
HUNTSVILLE     CLEAR     81  74  79 S8        30.00S
CONROE         CLEAR     80  73  79 S6        30.02R
HOUSTON BUSH   PTCLDY    82  74  76 S3        30.01R
HOUSTON HOBBY  PTCLDY    81  75  82 S7        30.00R
*HOUSTON SW AP CLEAR     76  75  96 CALM      30.02S
PEARLAND       CLEAR     81  75  82 CALM      30.02R
HOUSTON HOOKS  CLEAR     82  75  79 S6        30.01R
ELLINGTON FLD  PTCLDY    82  75  78 S5        30.02R
SUGAR LAND     CLEAR     81  76  84 S7        30.01R
*HOUSTON EXEC  PTCLDY    77  77 100 S6        30.02S
*CLEVELAND MUN CLEAR     78  76  93 CALM      30.02R
*WHARTON       CLEAR     77  75  93 S3        30.02R
$$

TXZ214>216-236>238-260600-
THE UPPER TEXAS COAST

CITY           SKY/WX    TMP DP  RH WIND       PRES   REMARKS
*ORANGE        CLEAR     78  78 100 CALM      30.03S
PORT ARTHUR    CLEAR     80  76  87 S3        30.01R
GALVESTON      PTCLDY    84  77  79 S10       30.02S HX  94
ANGLETON       CLEAR     79  76  90 S7        30.01S
*BAY CITY      CLEAR     80  80 100 S6        30.01S
PALACIOS       PTCLDY    84  76  76 S10       30.01S HX  93
$$

TXZ229>234-239>247-260600-
TEXAS COASTAL BEND AND RIO GRANDE PLAINS

CITY           SKY/WX    TMP DP  RH WIND       PRES   REMARKS
VICTORIA       CLEAR     80  76  87 S10       30.01R
*BEEVILLE      CLEAR     82  75  80 S10G16    30.00R
ROCKPORT       PTCLDY    84  78  82 S13G20    29.99S HX  95
*PORT ARANSAS  CLEAR     82  78  88 S9        30.00R HX  92
*PORT LAVACA   CLEAR     78  75  91 S5        30.01R
*INGLESIDE     PTCLDY    84  77  78 S12       29.99S HX  94
CORPUS CHRISTI PTCLDY    81  77  88 S14       30.00R
CORPUS NAS     CLEAR     83  79  88 S18       29.99S HX  94
*ROBSTOWN      NOT AVBL
ALICE          CLEAR     81  75  82 SE12      29.98S
KINGSVILLE NAS CLEAR     82  78  88 SE14      29.99R HX  91
COTULLA        CLEAR     81  72  74 SE12      29.97S
*FAITH RANCH   CLEAR     82  73  74 E10G17    29.96R
LAREDO         CLEAR     87  64  46 SE14      29.98R
$$

TXZ248>255-260600-
DEEP SOUTH TEXAS

CITY           SKY/WX    TMP DP  RH WIND       PRES   REMARKS
BROWNSVILLE    CLEAR     81  76  84 SE12      30.01R
PORT ISABEL    CLEAR     83  76  79 S13       30.00R HX  91
*SOUTH PADRE     N/A     81  77  89 S9        30.01R
HARLINGEN      CLEAR     82  75  79 S15       29.99R
*HEBBRONVILLE  CLEAR     84  66  54 SE12G17   30.00R
MCALLEN        CLEAR     82  74  76 SE16      29.99R
*WESLACO       CLEAR     82  73  72 S16       29.98S
FALFURRIAS     CLEAR     80  71  75 SE8       29.99R
EDINBURG       CLEAR     84  73  69 S8        29.99R
*ZAPATA        CLEAR     86  66  50 SE14G20   29.96R
$$

TXZ213>215-236>238-242>244-246-247-251-254-255-260600-
CMAN STATIONS

STATION/POSITION TIME  TEMP    WIND        PRES    WAVE
                       AIR SEA DIR/SP/G            HT/PER
                 (UTC) (F)     (DEG/KT/KT) (MB)    (FT/S)
SABINE PASS      0423   83 88  210/  6/  9 1016.3
SEA RIM ST PARK  0400   84     220/ 10/ 12 1016.6
NORTH JETTY/GLS  0400   85 93  220/ 13/ 14   N/A
EAGLE POINT      0400   84 90  230/  8/ 10 1016.2
MORGANS POINT    0423   84 91  220/  5/ 10 1016.0
MISSION/ARANSAS  0400   84     150/ 17     1016.0
PORT O`CONNOR    0400          170/ 17/ 21   N/A
PORT ARANSAS     0400   83 86  150/ 15/ 17 1016.1
MALAQUITE BEACH  0400   82 84  150/ 14/ 17 1015.1
BAFFIN BAY       0400   82 83  150/ 15/ 21 1015.7
PORT ISABEL      0400   83 82  150/ 12/ 16 1016.4
$$

GMZ080-GMZ150>470-260600-
OFFSHORE BUOY REPORTS

STATION/POSITION TIME  TEMP    WIND        PRES    WAVE
                       AIR SEA DIR/SP/G            HT/PER
                 (UTC) (F)     (DEG/KT/KT) (MB)    (FT/S)
90 E PT ARANSAS  0500   84 84  170/ 12/ 14 1017.0    2/ 5
35 NE PT MANSFLD 0400   84 81  170/ 16/ 17 1015.6    2/ 4
200 E PT ISABEL  0400   85 86  160/  6/ 10 1017.6    1/ 9
$$



USA.gov is the U.S. government's official web portal to all federal, state and local government web resources and services.